Total_Precipitation_Accumulation
0.00 0.00 0.00 0.01 0.02 0.02 0.02 0.03 0.03 0.03 0.10 0.16 0.29 0.40 0.39 0.36 0.33 0.34 0.34 0.31 0.30 0.27 0.23 0.18 0.14 0.12 0.11 0.11 0.09 0.07 0.06 0.05 0.06 0.06 0.06 0.08 0.09 0.10 0.10 0.10 0.09 0.08 0.08 0.06
0.01 0.01 0.00 0.01 0.01 0.01 0.02 0.04 0.04 0.07 0.14 0.22 0.30 0.33 0.36 0.33 0.29 0.32 0.41 0.45 0.43 0.33 0.24 0.17 0.15 0.15 0.15 0.14 0.11 0.10 0.10 0.11 0.11 0.12 0.12 0.14 0.14 0.13 0.13 0.12 0.10 0.07 0.04 0.03
0.01 0.01 0.01 0.01 0.01 0.01 0.02 0.03 0.05 0.09 0.14 0.17 0.23 0.26 0.27 0.26 0.27 0.34 0.41 0.41 0.34 0.25 0.19 0.19 0.20 0.22 0.22 0.21 0.20 0.19 0.19 0.18 0.17 0.17 0.17 0.17 0.14 0.12 0.10 0.07 0.05 0.04 0.03 0.02
0.02 0.02 0.03 0.02 0.01 0.02 0.03 0.05 0.04 0.05 0.06 0.09 0.14 0.17 0.18 0.19 0.24 0.27 0.29 0.27 0.23 0.20 0.22 0.26 0.29 0.30 0.29 0.26 0.24 0.22 0.23 0.22 0.21 0.18 0.17 0.13 0.10 0.08 0.05 0.04 0.03 0.03 0.02 0.02
0.06 0.07 0.04 0.02 0.01 0.02 0.02 0.04 0.04 0.06 0.07 0.08 0.10 0.12 0.13 0.13 0.15 0.19 0.21 0.21 0.21 0.25 0.31 0.36 0.37 0.34 0.30 0.29 0.27 0.25 0.24 0.19 0.15 0.11 0.08 0.06 0.05 0.03 0.03 0.02 0.02 0.02 0.02 0.02
0.14 0.17 0.14 0.10 0.03 0.02 0.04 0.09 0.05 0.05 0.06 0.06 0.08 0.13 0.12 0.09 0.09 0.10 0.12 0.17 0.26 0.34 0.40 0.41 0.37 0.31 0.28 0.26 0.22 0.18 0.13 0.09 0.06 0.04 0.03 0.02 0.02 0.02 0.02 0.02 0.02 0.01 0.02 0.03
0.24 0.29 0.26 0.13 0.07 0.07 0.14 0.17 0.12 0.09 0.09 0.11 0.14 0.16 0.12 0.07 0.07 0.09 0.15 0.25 0.32 0.37 0.38 0.34 0.27 0.20 0.17 0.14 0.11 0.08 0.05 0.03 0.02 0.01 0.01 0.01 0.01 0.02 0.02 0.02 0.02 0.02 0.02 0.03
0.28 0.35 0.40 0.16 0.11 0.17 0.19 0.14 0.15 0.13 0.12 0.13 0.15 0.13 0.10 0.09 0.11 0.15 0.24 0.33 0.36 0.36 0.31 0.23 0.16 0.12 0.09 0.07 0.04 0.03 0.03 0.02 0.02 0.01 0.01 0.00 0.01 0.02 0.02 0.02 0.02 0.02 0.02 0.03
0.37 0.38 0.27 0.13 0.10 0.10 0.12 0.14 0.14 0.13 0.13 0.16 0.20 0.20 0.19 0.20 0.23 0.28 0.34 0.36 0.32 0.27 0.21 0.13 0.08 0.05 0.05 0.03 0.02 0.02 0.03 0.02 0.02 0.01 0.01 0.01 0.01 0.02 0.02 0.02 0.02 0.02 0.02 0.03
0.33 0.31 0.23 0.15 0.10 0.08 0.09 0.13 0.15 0.18 0.21 0.26 0.32 0.32 0.30 0.30 0.32 0.33 0.31 0.25 0.18 0.12 0.08 0.05 0.03 0.02 0.02 0.01 0.01 0.02 0.03 0.02 0.03 0.02 0.01 0.01 0.01 0.01 0.02 0.02 0.02 0.03 0.04 0.04
0.53 0.46 0.34 0.20 0.14 0.15 0.16 0.20 0.26 0.32 0.34 0.36 0.35 0.33 0.30 0.29 0.26 0.21 0.15 0.09 0.07 0.05 0.03 0.02 0.01 0.01 0.01 0.01 0.02 0.02 0.02 0.02 0.02 0.02 0.02 0.02 0.02 0.01 0.02 0.03 0.01 0.02 0.04 0.06
0.83 0.60 0.47 0.37 0.32 0.34 0.35 0.34 0.34 0.33 0.31 0.30 0.26 0.22 0.20 0.17 0.13 0.10 0.07 0.05 0.05 0.03 0.02 0.01 0.00 0.00 0.00 0.00 0.01 0.01 0.02 0.02 0.01 0.01 0.01 0.01 0.02 0.03 0.01 0.00 0.00 0.01 0.03 0.05
0.71 0.56 0.50 0.50 0.48 0.47 0.41 0.30 0.25 0.21 0.18 0.19 0.18 0.14 0.12 0.08 0.06 0.05 0.04 0.03 0.03 0.02 0.00 0.00 0.00 0.00 0.00 0.00 0.00 0.01 0.01 0.02 0.01 0.01 0.01 0.01 0.02 0.04 0.06 0.05 0.02 0.02 0.02 0.03
0.49 0.47 0.48 0.39 0.28 0.22 0.14 0.10 0.11 0.13 0.12 0.09 0.08 0.08 0.05 0.03 0.03 0.03 0.02 0.01 0.01 0.00 0.00 0.00 0.00 0.00 0.00 0.00 0.00 0.01 0.01 0.00 0.01 0.01 0.01 0.01 0.01 0.03 0.04 0.07 0.08 0.08 0.04 0.03
0.28 0.23 0.17 0.11 0.07 0.06 0.06 0.05 0.07 0.09 0.09 0.06 0.04 0.03 0.03 0.03 0.03 0.02 0.01 0.00 0.00 0.00 0.00 0.00 0.00 0.00 0.00 0.00 0.00 0.00 0.00 0.01 0.01 0.01 0.00 0.01 0.01 0.02 0.03 0.05 0.06 0.06 0.05 0.04
0.10 0.07 0.05 0.04 0.04 0.04 0.05 0.05 0.05 0.05 0.05 0.05 0.03 0.03 0.02 0.02 0.01 0.01 0.00 0.00 0.00 0.00 0.00 0.00 0.00 0.00 0.00 0.00 0.01 0.01 0.01 0.00 0.00 0.00 0.00 0.01 0.01 0.01 0.03 0.04 0.05 0.06 0.06 0.05
0.05 0.03 0.03 0.03 0.03 0.03 0.03 0.03 0.02 0.02 0.03 0.03 0.02 0.01 0.01 0.00 0.00 0.00 0.00 0.00 0.00 0.00 0.00 0.00 0.00 0.00 0.00 0.00 0.00 0.01 0.01 0.00 0.00 0.00 0.00 0.00 0.00 0.01 0.02 0.03 0.04 0.05 0.06 0.07
0.02 0.01 0.01 0.01 0.01 0.01 0.01 0.01 0.01 0.01 0.02 0.01 0.00 0.00 0.00 0.00 0.00 0.00 0.00 0.00 0.00 0.00 0.00 0.00 0.00 0.00 0.00 0.00 0.00 0.00 0.01 0.01 0.00 0.00 0.00 0.00 0.00 0.00 0.01 0.01 0.02 0.03 0.04 0.07
0.01 0.01 0.01 0.00 0.00 0.00 0.00 0.00 0.01 0.00 0.00 0.00 0.00 0.00 0.00 0.00 0.00 0.00 0.00 0.00 0.00 0.00 0.00 0.00 0.00 0.00 0.00 0.00 0.00 0.00 0.00 0.01 0.01 0.00 0.00 0.00 0.00 0.00 0.00 0.00 0.01 0.02 0.03 0.05
0.01 0.02 0.01 0.00 0.00 0.00 0.00 0.00 0.00 0.00 0.00 0.00 0.00 0.00 0.00 0.00 0.00 0.00 0.00 0.00 0.00 0.00 0.00 0.00 0.00 0.00 0.00 0.00 0.00 0.00 0.00 0.00 0.00 0.00 0.00 0.00 0.00 0.00 0.00 0.00 0.00 0.01 0.02 0.04
0.02 0.02 0.02 0.00 0.00 0.00 0.00 0.00 0.01 0.01 0.00 0.00 0.00 0.00 0.00 0.00 0.00 0.00 0.00 0.00 0.00 0.00 0.00 0.00 0.00 0.00 0.00 0.00 0.00 0.00 0.00 0.00 0.00 0.00 0.00 0.00 0.00 0.00 0.00 0.00 0.00 0.00 0.01 0.02
0.03 0.04 0.02 0.01 0.00 0.00 0.00 0.01 0.00 0.00 0.00 0.00 0.00 0.00 0.00 0.00 0.00 0.00 0.00 0.00 0.00 0.00 0.00 0.00 0.00 0.00 0.00 0.00 0.00 0.00 0.00 0.00 0.00 0.00 0.00 0.00 0.00 0.00 0.00 0.00 0.00 0.00 0.00 0.01
0.06 0.04 0.03 0.02 0.01 0.01 0.01 0.01 0.00 0.00 0.00 0.00 0.00 0.00 0.00 0.00 0.00 0.00 0.00 0.00 0.00 0.00 0.00 0.00 0.00 0.00 0.00 0.00 0.00 0.00 0.00 0.00 0.00 0.00 0.00 0.00 0.00 0.00 0.00 0.00 0.00 0.00 0.00 0.00
0.10 0.08 0.05 0.03 0.02 0.02 0.01 0.01 0.00 0.00 0.00 0.00 0.00 0.00 0.00 0.00 0.00 0.00 0.00 0.00 0.00 0.00 0.00 0.00 0.00 0.00 0.00 0.00 0.00 0.00 0.00 0.00 0.00 0.00 0.00 0.00 0.00 0.00 0.00 0.00 0.00 0.00 0.00 0.00
0.14 0.10 0.06 0.04 0.04 0.03 0.02 0.01 0.00 0.00 0.00 0.00 0.00 0.00 0.00 0.00 0.00 0.00 0.00 0.00 0.00 0.00 0.00 0.00 0.00 0.00 0.00 0.00 0.00 0.00 0.00 0.00 0.00 0.00 0.00 0.00 0.00 0.00 0.00 0.00 0.00 0.00 0.00 0.00
0.18 0.16 0.12 0.09 0.05 0.02 0.00 0.00 0.00 0.00 0.00 0.00 0.00 0.00 0.00 0.00 0.00 0.00 0.00 0.00 0.00 0.00 0.00 0.00 0.00 0.00 0.00 0.00 0.00 0.00 0.00 0.00 0.00 0.00 0.00 0.00 0.00 0.00 0.00 0.00 0.00 0.00 0.00 0.00
0.22 0.18 0.14 0.09 0.04 0.01 0.00 0.00 0.00 0.00 0.00 0.00 0.00 0.00 0.00 0.00 0.00 0.00 0.00 0.00 0.00 0.00 0.00 0.00 0.00 0.00 0.00 0.00 0.00 0.00 0.00 0.00 0.00 0.00 0.00 0.00 0.00 0.00 0.00 0.00 0.00 0.00 0.00 0.00